Change the Weather History Date:

Wednesday, March 21, 2012

  Actual Average Record
Temperature  
Mean Temperature 51 °F 52 °F  
Max Temperature 69 °F 67 °F 89 °F (2004)
Min Temperature 33 °F 38 °F 25 °F (1955)
Degree Days  
Heating Degree Days 14 13  
Month to date heating degree days 327 303  
Since 1 July heating degree days 2820 2716  
Cooling Degree Days 0 0  
Month to date cooling degree days 0 0  
Year to date cooling degree days 0 0  
Growing Degree Days 2 (Base 50)    
Moisture  
Dew Point 33 °F    
Average Humidity 54    
Maximum Humidity 82    
Minimum Humidity 26    
Precipitation  
Precipitation 0.00 in 0.02 in 1.10 in (1909)
Month to date precipitation 1.04 0.56  
Year to date precipitation 1.81 2.72  
Sea Level Pressure  
Sea Level Pressure 29.99 in    
Wind  
Wind Speed 5 mph (NE)    
Max Wind Speed 10 mph    
Max Gust Speed 14 mph    
Visibility 10 miles    
Events      
T = Trace of Precipitation, MM = Missing Value Source: NWS Daily Summary

Daily Weather History Graph

Daily Weather History Graph

Search for Another Location

Airport or City:

Trip Planner

Search our weather history database for the weather conditions in past years. The results will help you decide how hot, cold, wet, or windy it might be!

Date:

Astronomy

Mar. 21, 2012 Rise Set
Actual Time 6:37 AM MST 6:48 PM MST
Civil Twilight 6:11 AM MST 7:14 PM MST
Nautical Twilight 5:42 AM MST 7:43 PM MST
Astronomical Twilight 5:12 AM MST 8:13 PM MST
Moon 5:49 AM MST (3/21) 6:18 PM MST (3/21)
Length of Visible Light 13h 02m
Length of Day
12h 11m
Waning Crescent, 1% of the Moon is Illuminated
Mar 21
Waning Crescent
Mar 22
New
Mar 30
First Quarter
Apr 6
Full
Apr 13
Last Quarter

Hourly Weather History & Observations

Time (MST) Temp. Windchill Dew Point Humidity Pressure Visibility Wind Dir Wind Speed Gust Speed Precip Events Conditions
12:48 AM 37.9 °F - 30.9 °F 76% 30.07 in 10.0 mi Calm Calm - N/A   Clear
1:48 AM 37.0 °F - 30.9 °F 79% 30.06 in 10.0 mi Calm Calm - N/A   Clear
2:48 AM 37.0 °F - 30.0 °F 76% 30.05 in 10.0 mi Calm Calm - N/A   Clear
3:48 AM 39.0 °F - 28.0 °F 65% 30.04 in 10.0 mi Calm Calm - N/A   Clear
4:48 AM 37.0 °F - 28.9 °F 73% 30.03 in 10.0 mi Calm Calm - N/A   Clear
5:48 AM 36.0 °F 31.1 °F 30.9 °F 82% 30.04 in 10.0 mi East 5.8 mph - N/A   Clear
6:48 AM 36.0 °F 31.1 °F 30.0 °F 79% 30.06 in 10.0 mi East 5.8 mph - N/A   Clear
7:48 AM 44.1 °F 40.8 °F 34.0 °F 68% 30.07 in 10.0 mi East 5.8 mph - N/A   Clear
8:48 AM 48.9 °F - 30.0 °F 48% 30.06 in 10.0 mi NNE 5.8 mph - N/A   Clear
9:48 AM 52.0 °F - 32.0 °F 47% 30.05 in 10.0 mi North 8.1 mph - N/A   Clear
10:48 AM 57.0 °F - 32.0 °F 39% 30.03 in 10.0 mi North 6.9 mph - N/A   Clear
11:48 AM 61.0 °F - 33.1 °F 35% 30.01 in 10.0 mi North 8.1 mph - N/A   Clear
12:48 PM 63.0 °F - 33.1 °F 33% 29.98 in 10.0 mi North 8.1 mph - N/A   Clear
1:48 PM 66.0 °F - 34.0 °F 30% 29.96 in 10.0 mi NNW 6.9 mph - N/A   Clear
2:48 PM 68.0 °F - 33.1 °F 27% 29.94 in 10.0 mi North 5.8 mph - N/A   Clear
3:48 PM 68.0 °F - 32.0 °F 26% 29.91 in 10.0 mi North 4.6 mph - N/A   Clear
4:48 PM 68.0 °F - 33.1 °F 27% 29.91 in 10.0 mi NNW 4.6 mph - N/A   Clear
5:48 PM 68.0 °F - 32.0 °F 26% 29.90 in 10.0 mi North 4.6 mph - N/A   Clear
6:48 PM 61.0 °F - 35.1 °F 38% 29.91 in 10.0 mi North 6.9 mph - N/A   Clear
7:48 PM 54.0 °F - 39.0 °F 57% 29.91 in 10.0 mi East 8.1 mph - N/A   Clear
8:48 PM 50.0 °F - 39.0 °F 66% 29.92 in 10.0 mi ESE 9.2 mph - N/A   Clear
9:48 PM 48.0 °F - 37.9 °F 68% 29.93 in 10.0 mi ESE 5.8 mph - N/A   Clear
10:48 PM 46.0 °F 42.5 °F 37.9 °F 73% 29.92 in 10.0 mi SE 6.9 mph - N/A   Clear
11:48 PM 46.0 °F 41.9 °F 36.0 °F 68% 29.90 in 10.0 mi SE 8.1 mph - N/A   Clear